• In Hungary
  • List of Countries
  • For 7 days
  • Water Temperature
  • Satellite Maps
  • Weather Map
  • News
  • Weather Widgets
  • user-avatar
    Login

    Hourly Weather Staishche

    Today, 18 June, Monday

    Time Temperature Precipitation Wind Pressure Humidity
    00:00 +15°C° 0.1 mm 2 mps 674 mmHg 100%
    01:00 +14°C° 9.4 mm 3 mps 674 mmHg 100%
    02:00 +15°C° 14.5 mm 1 mps 674 mmHg 100%
    03:00 +15°C° 6.5 mm 2 mps 674 mmHg 100%
    04:00 +15°C° 1.9 mm 2 mps 674 mmHg 100%
    05:00 +14°C° 0.3 mm 3 mps 674 mmHg 100%
    06:00 +14°C° 0.1 mm 4 mps 674 mmHg 100%
    07:00 +15°C° 0 mm 4 mps 675 mmHg 100%
    08:00 +15°C° 0 mm 4 mps 675 mmHg 100%
    09:00 +15°C° 0 mm 4 mps 675 mmHg 100%
    10:00 +15°C° 0 mm 4 mps 676 mmHg 100%
    11:00 +17°C° 0 mm 4 mps 676 mmHg 100%
    12:00 +18°C° 0 mm 4 mps 676 mmHg 100%
    13:00 +19°C° 0 mm 5 mps 676 mmHg 100%
    14:00 +20°C° 0 mm 5 mps 676 mmHg 100%
    15:00 +20°C° 0 mm 5 mps 676 mmHg 100%
    16:00 +20°C° 0.2 mm 5 mps 676 mmHg 98%
    17:00 +20°C° 0 mm 5 mps 676 mmHg 98%
    18:00 +20°C° 0 mm 4 mps 676 mmHg 100%
    19:00 +19°C° 0 mm 3 mps 676 mmHg 100%
    20:00 +18°C° 0 mm 2 mps 676 mmHg 100%
    21:00 +19°C° 0 mm 1 mps 676 mmHg 100%
    22:00 +18°C° 0 mm 1 mps 676 mmHg 100%
    23:00 +18°C° 0 mm 1 mps 677 mmHg 100%

    Tomorrow, 19 June, Tuesday

    Time Temperature Precipitation Wind Pressure Humidity
    00:00 +18°C° 0 mm 1 mps 677 mmHg 100%
    01:00 +18°C° 0 mm 1 mps 677 mmHg 100%
    02:00 +16°C° 0 mm 1 mps 677 mmHg 100%
    03:00 +16°C° 0 mm 1 mps 677 mmHg 100%
    04:00 +16°C° 0 mm 1 mps 677 mmHg 100%
    05:00 +16°C° 0 mm 1 mps 678 mmHg 100%
    06:00 +16°C° 0 mm 1 mps 678 mmHg 100%
    07:00 +16°C° 0 mm 0 mps 679 mmHg 100%
    08:00 +19°C° 0 mm 1 mps 679 mmHg 100%
    09:00 +20°C° 0 mm 1 mps 680 mmHg 100%
    10:00 +21°C° 0 mm 1 mps 680 mmHg 100%
    11:00 +20°C° 0 mm 3 mps 680 mmHg 100%
    12:00 +21°C° 0 mm 2 mps 681 mmHg 97%
    13:00 +21°C° 0 mm 2 mps 681 mmHg 94%
    14:00 +21°C° 0 mm 2 mps 681 mmHg 93%
    15:00 +23°C° 0 mm 2 mps 681 mmHg 94%
    16:00 +23°C° 0 mm 2 mps 680 mmHg 98%
    17:00 +21°C° 0.8 mm 3 mps 680 mmHg 100%
    18:00 +20°C° 1.3 mm 2 mps 681 mmHg 99%
    19:00 +20°C° 0.2 mm 2 mps 680 mmHg 100%
    20:00 +20°C° 0.4 mm 1 mps 681 mmHg 100%
    21:00 +19°C° 0.9 mm 1 mps 681 mmHg 100%
    22:00 +19°C° 1.2 mm 1 mps 681 mmHg 100%
    23:00 +19°C° 0.1 mm 1 mps 681 mmHg 100%

    Day after tomorrow, 20 June, Wednesday

    Time Temperature Precipitation Wind Pressure Humidity
    00:00 +19°C° 0.2 mm 1 mps 681 mmHg 100%
    01:00 +18°C° 0 mm 1 mps 681 mmHg 100%
    02:00 +17°C° 0 mm 2 mps 682 mmHg 100%
    03:00 +17°C° 0 mm 2 mps 681 mmHg 100%
    04:00 +17°C° 0 mm 2 mps 681 mmHg 100%
    05:00 +17°C° 0 mm 2 mps 681 mmHg 100%
    06:00 +16°C° 0 mm 1 mps 681 mmHg 100%
    07:00 +18°C° 0 mm 1 mps 682 mmHg 100%
    08:00 +18°C° 0 mm 1 mps 682 mmHg 100%
    09:00 +19°C° 0 mm 1 mps 682 mmHg 100%
    10:00 +19°C° 0 mm 1 mps 683 mmHg 100%
    11:00 +19°C° 0 mm 2 mps 683 mmHg 100%
    12:00 +19°C° 0 mm 2 mps 683 mmHg 100%
    13:00 +21°C° 0 mm 2 mps 683 mmHg 94%
    14:00 +21°C° 0 mm 2 mps 683 mmHg 93%
    15:00 +21°C° 0 mm 2 mps 683 mmHg 99%
    16:00 +21°C° 0.6 mm 3 mps 683 mmHg 100%
    17:00 +20°C° 0.6 mm 2 mps 683 mmHg 100%
    18:00 +20°C° 0.1 mm 2 mps 682 mmHg 100%
    19:00 +20°C° 0.2 mm 2 mps 682 mmHg 100%
    20:00 +20°C° 0.5 mm 1 mps 682 mmHg 100%
    21:00 +18°C° 0 mm 2 mps 682 mmHg 100%
    22:00 +18°C° 0 mm 2 mps 682 mmHg 100%
    23:00 +19°C° 0 mm 1 mps 682 mmHg 100%

    21 June, Thursday

    Time Temperature Precipitation Wind Pressure Humidity
    00:00 +19°C° 0 mm 1 mps 682 mmHg 98%
    01:00 +18°C° 0 mm 1 mps 681 mmHg 95%
    02:00 +18°C° 0 mm 1 mps 681 mmHg 90%
    03:00 +18°C° 0 mm 1 mps 681 mmHg 87%
    04:00 +18°C° 0 mm 1 mps 681 mmHg 84%
    05:00 +16°C° 0 mm 0 mps 681 mmHg 84%
    06:00 +16°C° 0 mm 0 mps 680 mmHg 85%
    07:00 +17°C° 0 mm 0 mps 681 mmHg 95%
    08:00 +20°C° 0 mm 1 mps 681 mmHg 94%
    09:00 +21°C° 0 mm 1 mps 681 mmHg 91%
    10:00 +22°C° 0 mm 1 mps 681 mmHg 93%
    11:00 +23°C° 0 mm 2 mps 681 mmHg 94%
    12:00 +23°C° 0 mm 2 mps 680 mmHg 94%
    13:00 +24°C° 0 mm 3 mps 680 mmHg 91%
    14:00 +24°C° 0 mm 3 mps 679 mmHg 90%

    22 June, Friday

    Time Temperature Precipitation Wind Pressure Humidity

    23 June, Saturday

    Time Temperature Precipitation Wind Pressure Humidity
    Show more